sat.trackr.live / text

‹ back to catalog

FOSSASAT-2E26

NORAD 69899 · 2026-156AG

PAYLOAD ACTIVE UNKNOWN

§ Identity

Operator
Country
SPN
Launch date
2026-07-07
Launch site
AFWTR
Launch vehicle
Mass (kg)
RCS (m²)

External: N2YO · Heavens-Above · Gunter

§ Orbital elements

Epoch: 2026-09-20T03:47:43.429056Z

Period
96.56 min
Inclination
97.7431°
Eccentricity
0.0003597
Mean motion
14.91307313 rev/d
Perigee alt
591.4 km
Apogee alt
596.4 km
Semi-major
6,972.0 km
B*
1.2332e-4
RAAN
162.2766°
Arg perigee
239.5504°
Mean anomaly
120.5359°
Rev number
1,115

§ Raw data

FOSSASAT-2E261 69899U 26156AG  26263.15814154  .00001173  00000+0  12332-3 0  99942 69899  97.7431 162.2766 0003597 239.5504 120.5359 14.91307313 11151

JSON: /api/v1/satellites/69899 · /tle

For live sub-satellite position, see the globe view (requires WebGL).

§ Visibility from observer

Set your observer location to see the next 7 days of passes ≥ 10°. The values pass through the URL so the page stays shareable.

No JS? Fill the form by hand. The geolocation button needs JavaScript.